Regional Weather Roundup
Issued by NWS Sioux Falls, SD

Home | Current Version | Previous Version | Text Only | Print | Product List | Glossary On
Versions: 1 2 3 4 5 6 7 8 9 10 11 12 13 14 15 16 17 18 19 20 21 22 23 24 25 26 27 28 29 30 31 32 33 34 35 36 37 38 39 40 41 42 43 44 45 46 47 48 49 50
410
ASUS43 KFSD 232310
RWRFSD

WEATHER ROUNDUP FOR SE SOUTH DAKOTA/SW MINNESOTA/NW IOWA
NATIONAL WEATHER SERVICE SIOUX FALLS SD
500 PM CST TUE JAN 23 2018

NOTE: "FAIR" INDICATES FEW OR NO CLOUDS BELOW 12,000 FEET WITH NO
SIGNIFICANT WEATHER AND OR OBSTRUCTIONS TO VISIBILITY.


SDZ038>040-050-052>070-240000-
SOUTHEAST SOUTH DAKOTA

CITY           SKY/WX    TMP DP  RH WIND       PRES   REMARKS
BROOKINGS      CLOUDY    23  21  92 W9        30.12R FOG     WCI  13
CHAMBERLAIN    PTCLDY    33  30  88 W7        30.14R WCI  26
HURON          MOCLDY    26  23  88 SW3       30.13R
MADISON        CLOUDY    23  23 100 W8        30.11R WCI  14
MITCHELL       CLOUDY    31  26  82 W5        30.15R WCI  26
SIOUX FALLS    CLOUDY    24  22  91 W5        30.14R WCI  18
WINNER         FAIR      37  28  70 W16       30.14R
YANKTON        CLOUDY    27  22  81 E3        30.16R
$$

MNZ071-072-080-081-089-090-097-098-240000-
SOUTHWEST MINNESOTA

CITY           SKY/WX    TMP DP  RH WIND       PRES   REMARKS
FAIRMONT       CLOUDY    21  16  81 W12       30.15R WCI   9
JACKSON        CLOUDY    23  19  86 W8        30.13R WCI  14
LUVERNE        CLOUDY    23  19  86 W8        30.15R WCI  14
MARSHALL       CLOUDY    26  21  81 W8        30.14R WCI  18
MONTEVIDEO     CLOUDY    25  18  74 NW3       30.14R
PIPESTONE      CLOUDY    21  19  93 W8        30.11R WCI  12
REDWOOD FALLS  MOCLDY    26  19  74 W9        30.13R WCI  17
TRACY          CLOUDY    26  22  85 W3        30.13R
WINDOM         CLOUDY    23   9  54 W7        30.13R WCI  15
WORTHINGTON    CLOUDY    22  20  92 W9        30.13R WCI  12
$$

IAZ001>003-012>014-020>022-031-032-NEZ013-014-SDZ071-240000-
NORTHWEST IOWA

CITY           SKY/WX    TMP DP  RH WIND       PRES   REMARKS
CHEROKEE       CLOUDY    22  21  96 W7        30.18R WCI  14
DENISON        CLOUDY    23  21  93 W8        30.19R WCI  14
ESTHERVILLE    CLOUDY    19  16  88 W10       30.14R WCI   7
LE MARS        CLOUDY    23  21  93 SW6       30.18R WCI  16
ORANGE CITY    CLOUDY    21  21 100 W7        30.15R WCI  13
SHELDON        CLOUDY    23  21  93 W6        30.14R WCI  16
SIOUX CITY     CLOUDY    25  22  88 CALM      30.19R
SPENCER        CLOUDY    23  18  81 W12       30.16R WCI  12
STORM LAKE     CLOUDY    21  21 100 W13       30.15R WCI   9
$$

ABBREVIATIONS USED IN REMARKS
   TC - TEMPERATURE IN CELSIUS
  WCI - WIND CHILL INDEX
   HX - HEAT INDEX
  VSB - VISIBILITY





USA.gov is the U.S. government's official web portal to all federal, state and local government web resources and services.